Location: Newark
(9.4667°S, 159.8167°E)
Time: 14:39:40
(UTC+00:00)

OTV 5 (USA 277) - Visible Passes

Search period start: 16 October 2019 00:00
Search period end: 26 October 2019 00:00
Orbit: 310 x 324 km, 54.5° (Epoch: 08 October)

Date Brightness Start Highest point End Pass type
(mag) Time Alt. Az. Time Alt. Az. Time Alt. Az.
18 Oct ? 08:33:45 10° S 08:34:01 12° S 08:34:01 12° S visible
19 Oct ? 08:47:48 10° SW 08:48:57 22° SW 08:48:57 22° SW visible
20 Oct ? 09:03:45 10° W 09:03:59 11° W 09:03:59 11° W visible
21 Oct ? 07:42:42 10° SSW 07:45:21 50° ESE 07:47:59 10° NE visible
22 Oct ? 07:57:30 10° WSW 07:59:49 25° WNW 08:02:07 10° N visible
25 Oct ? 18:31:30 10° N 18:33:33 20° ENE 18:35:37 10° ESE visible
